AirNav   Pilot Hours Calculator
 
 1170 users online  

7CA9 River Meadow Farm Heliport
Rutherford, California, USA

GOING TO RUTHERFORD?


FAA INFORMATION EFFECTIVE 30 JANUARY 2020

Location

FAA Identifier: 7CA9
Lat/Long: 38-27-45.6000N 122-24-52.8000W
38-27.760000N 122-24.880000W
38.4626667,-122.4146667
(estimated)
Elevation: 146 ft. / 45 m (estimated)
Variation: 16E (1985)
From city: 1 mile SE of RUTHERFORD, CA
Time zone: UTC -8 (UTC -7 during Daylight Saving Time)
Zip code: 94558

Heliport Operations

Heliport use: Private use. Permission required prior to landing
Activation date: 01/1979
Control tower: no
ARTCC: OAKLAND CENTER
FSS: OAKLAND FLIGHT SERVICE STATION
Attendance: UNATNDD
Wind indicator: yes
Segmented circle: no

Heliport Communications

WX AWOS-3P at O69 (15 nm SW): 132.325 (707-773-1529)
WX ASOS at APC (16 nm SE): PHONE 707-252-7916
WX ASOS at STS (19 nm W): 120.55 (707-573-8393)

Nearby radio navigation aids

VOR radial/distance  VOR name  Freq  Var
SGDr336/17.1SCAGGS ISLAND VORTAC112.1017E
STSr082/18.8SANTA ROSA VOR/DME113.0016E
CCRr308/30.5CONCORD VOR/DME117.0017E
PYEr026/31.4POINT REYES VOR/DME113.7017E
SAUr351/36.8SAUSALITO VOR/DME116.2017E

Heliport Services

Runway Information

Helipad H1

Dimensions: 65 x 65 ft. / 20 x 20 m
Surface: concrete
Latitude: 38-27.760000N
Longitude: 122-24.880000W
Elevation: 146.0 ft.
Traffic pattern: leftleft

Heliport Ownership and Management from official FAA records

Ownership: Privately-owned
Owner: DIANE WILSEY
2590 JACKSON STREET
SAN FRANCISCO, CA 94115
Phone 415-922-2875

Heliport Operational Statistics

Aircraft based on the field: 1
Helicopters: 1
    

Additional Remarks

FOR CD CTC OAKLAND ARTCC AT 510-745-3380.

Instrument Procedures

There are no published instrument procedures at 7CA9.

Some nearby airports with instrument procedures:

O69 - Petaluma Municipal Airport (15 nm SW)
KAPC - Napa County Airport (16 nm SE)
KSTS - Charles M Schulz - Sonoma County Airport (19 nm W)
KDVO - Gnoss Field Airport (20 nm S)
KVCB - Nut Tree Airport (22 nm E)
 
Loc | Ops | Rwys | IFR | FBO | Links
Com | Nav | Svcs | Stats | Notes

Sonoma Jet Center
 
Area around 7CA9 (River Meadow Farm Heliport)
 
Road maps at: MapQuest Bing Google
 
Aerial photo
No photo
 
Sectional chart

 
Airport distance calculator
Flying to River Meadow Farm Heliport? Find the distance to fly.

From to 7CA9

Sunrise and sunset
Times for 23-Feb-2020
 Local
(UTC-8)
 Zulu
(UTC)
Morning civil twilight06:2414:24
Sunrise06:5114:51
Sunset17:5501:55
Evening civil twilight18:2202:22

Current date and time
Zulu (UTC)  23-Feb-2020 17:18:10
Local (UTC-8)  23-Feb-2020 09:18:10
 
METAR
KO69 
15nm SW 
231655Z AUTO 00000KT 10SM CLR 09/09 A3033 RMK A01
KAPC 
17nm S 
231654Z 00000KT 10SM CLR 08/07 A3032 RMK AO2 SLP258 T00780072
KSTS 
19nm W 
707-573-8393
231653Z 00000KT 7SM BCFG FEW200 06/06 A3031 RMK AO2 SLP260 T00610061
KDVO 
20nm S 
231655Z AUTO 00000KT 10SM CLR 09/08 A3033 RMK AO2
KVCB 
22nm E 
231653Z AUTO 02004KT 4SM BR OVC002 08/07 A3033 RMK AO2 SLP269 T00780067
KSUU 
26nm SE 
231658Z AUTO 23006KT 10SM CLR 11/07 A3031 RMK AO2 SLP271 T01100073 $
KEDU 
30nm E 
231700Z AUTO 28003KT 4SM OVC003 08/08 A3032 RMK AO1
TAF
KSTS 
19nm W 
231140Z 2312/2412 00000KT 1/4SM FG VV002 WS012/34030KT FM231630 34003KT 5SM BR SCT004 WS012/34030KT FM231800 35015G19KT P6SM FEW025 SCT200 FM240300 31008KT P6SM BKN020 BKN200 FM240600 34012KT P6SM FEW200
NOTAMs
Click for the latest NOTAMs
NOTAMs are issued by the DoD/FAA and will open in a separate window not controlled by AirNav.

 

 
 

Would you like to see your business listed on this page?

 If your business provides an interesting product or service to pilots, flight crews, aircraft, or users of the River Meadow Farm Heliport, you should consider listing it here.  To start the listing process, click on the button below
 
Add a business
 

Other Pages about River Meadow Farm Heliport

Update a link
 
Copyright © AirNav, LLC. All rights reserved. Privacy Policy  Contact